Tracking 18852 objects as of 24-Nov-2017
HD Live streaming from Space Station
objects crossing your sky now

NSS 703 (INTELSAT 703)

Track NSS 703 (INTELSAT 703) now!
NSS 703 (INTELSAT 703) is classified as:


NORAD ID: 23305
Int'l Code: 1994-064A
Perigee: 36,018.0 km
Apogee: 36,116.1 km
Inclination: 6.3 °
Period: 1,450.1 minutes
Semi major axis: 42438 km
RCS: 0.003 m2 (small)
Launch date: October 6, 1994
Source: SOCIETE EUROPEENNE DES SATELLITES (SES)
Launch site: AIR FORCE EASTERN TEST RANGE (AFETR)

Africa, Japan, India, China, Australia; 26 C-band, 10 Ku-band; shared capacity with Intelset.
aabbcc
Your satellite tracking list
Your tracking list is empty




NASA's NSSDC Master Catalog

Two Line Element Set (TLE):
1 23305U 94064A   17327.19134866 -.00000196  00000-0  00000+0 0  9990
2 23305   6.3009  56.0534 0011550 193.8242 180.0732  0.99304686 84667
Source of the keplerian elements: AFSPC